OBJECT AA, 42849

Orbit data source: Space-Track

You're viewing an Uncataloged Satellite

Recently launched and/or uncataloged satellites may have evolving metadata. Metadata may include but not limited to: Owner, Maufacturer, Bus, Motor, and Mission.

OBJECT AA, 42849 is a satellite in SSO that was launched on Fri, 14 Jul 2017 UTC via a SOYUZ-2-1A launch vehicle from the Tyuratam Missile And Space Complex (TTMTR). Unknown objects in Earth's orbit typically refer to objects detected orbiting the Earth but have not yet been identified or cataloged. These objects could be anything from previously untracked satellites, spent rocket stages, debris from satellite collisions, or even natural meteoroids temporarily captured by Earth's gravity.

Loading next visibility...
Identifier
42849, 2017-042AA
Orbit
SSO
Country
Flag of TBDTBD
Related business
None
Manufacturer
Unknown
Mission
Non-operational Commercial Meteo Radio Occ.
Bus & Motor
Unknown
Mass
Unknown
Launch date (UTC)
2017-07-14 (8 years ago)
Launch vehicle
SOYUZ-2-1A
Launch site
Tyuratam Missile And Space Complex (TTMTR)
Object type
Unknown
Shape & HBR
Box + 2 Pan, 0.3 m
Radar Cross Section
0.079 m², Medium (>0.1 m² and < 1m²)

Expand to show TLE details & history
Last TLE update: 19 hours ago

TLE from 19 hours ago
0 OBJECT AA
1 42849U 17042AA  25338.02539046  .00009416  00000-0  65040-3 0  9999
2 42849  97.4038 145.9506 0012295  55.3353 304.9031 15.05897535457827
Epoch: 2025-12-04T00:36Z
TLE epoch observation values (Epoch: 2025-12-04T00:36:33.735Z)
Latitude
-0.00009°
Longitude
63.72229°
Altitude
546.956 km
Speed
7.591 km/s
True Right ascension
09h 43m 48s
True Declination
0° 00' 00"
Sunlit
Object was in daylight at epoch
Visualization orbit readout
Latitude
Unknown
Longitude
Unknown
Altitude
Unknown
Speed
Unknown
Apparent Right ascension
Unknown
Apparent Declination
Unknown
Sunlit
N/A
Visualization observer readout
Local Sidereal Time
17:32:26
Azimuth
Unknown
Elevation
Unknown
Doppler factor
Unknown
Orbital elements
Apogee altitude
554.249 km
Perigee altitude
537.224 km
Semi-major axis
6,923.874 km
Eccentricity
0.00123
Inclination
97.4038°
RAAN
145.9506°
Arg. of periapsis
55.3353°
True anomaly
304.78745°
Mean anomaly
304.9031°
Eccentric anomaly
304.84529°
Mean motion
3.76721 °/min
Orbital period
95.56 mins
BSTAR
0.0006504
Loading maneuver chart data...
Computing Atmospheric mass density...

Documentation

Showing up to 5 results
|